Change the Weather History Date:

Friday, October 5, 2012

  Actual Average Record
Temperature  
Mean Temperature 73 °F -  
Max Temperature 87 °F 83 °F 95 °F (2006)
Min Temperature 60 °F 59 °F 36 °F (2010)
Cooling Degree Days 8    
Growing Degree Days 23 (Base 50)    
Moisture  
Dew Point 62 °F    
Average Humidity 87    
Maximum Humidity 94    
Minimum Humidity 44    
Precipitation  
Precipitation 0.00 in - - ()
Sea Level Pressure  
Sea Level Pressure 30.10 in    
Wind  
Wind Speed 1 mph (South)    
Max Wind Speed 8 mph    
Max Gust Speed -    
Visibility 4 miles    
Events Fog    
Averages and records for this station are not official NWS values.
T = Trace of Precipitation, MM = Missing Value Source: NWS Daily Summary

Daily Weather History Graph

Daily Weather History Graph

Search for Another Location

Airport or City:

Trip Planner

Search our weather history database for the weather conditions in past years. The results will help you decide how hot, cold, wet, or windy it might be!

Date:

Astronomy

Oct. 05, 2012 Rise Set
Actual Time 7:05 AM CDT 6:48 PM CDT
Civil Twilight 6:41 AM CDT 7:12 PM CDT
Nautical Twilight 6:13 AM CDT 7:40 PM CDT
Astronomical Twilight 5:45 AM CDT 8:09 PM CDT
Moon 10:29 PM CDT (10/5) 11:56 AM CDT (10/5)
Length of Visible Light 12h 31m
Length of Day
11h 42m
Waning Gibbous, 74% of the Moon is Illuminated
Oct 5
Waning Gibbous
Oct 8
Last Quarter
Oct 15
New
Oct 21
First Quarter
Oct 29
Full

Hourly Weather History & Observations

Time (CDT) Temp. Heat Index Dew Point Humidity Pressure Visibility Wind Dir Wind Speed Gust Speed Precip Events Conditions
12:02 AM 64.4 °F - 62.6 °F 94% 30.15 in 0.8 mi Calm Calm - N/A   Clear
12:21 AM 62.6 °F - 60.8 °F 94% 30.15 in 1.8 mi West 4.6 mph - N/A   Clear
12:25 AM 62.6 °F - 60.8 °F 94% 30.15 in 3.0 mi Calm Calm - N/A   Clear
12:53 AM 63.0 °F - 61.0 °F 93% 30.14 in 3.0 mi ENE 3.5 mph - N/A   Clear
1:34 AM 62.6 °F - 60.8 °F 94% 30.15 in 2.5 mi Calm Calm - N/A   Clear
1:41 AM 62.6 °F - 60.8 °F 94% 30.15 in 0.8 mi Calm Calm - N/A   Clear
1:50 AM 62.6 °F - 60.8 °F 94% 30.14 in 1.8 mi Calm Calm - N/A   Clear
1:53 AM 63.0 °F - 61.0 °F 93% 30.14 in 1.2 mi Calm Calm - N/A   Clear
2:02 AM 62.6 °F - 60.8 °F 94% 30.14 in 0.5 mi Calm Calm - N/A Fog Fog
2:09 AM 62.6 °F - 60.8 °F 94% 30.14 in 0.5 mi Calm Calm - N/A Fog Fog
2:18 AM 62.6 °F - 60.8 °F 94% 30.14 in 1.2 mi Calm Calm - N/A   Partly Cloudy
2:22 AM 62.6 °F - 60.8 °F 94% 30.14 in 3.0 mi Calm Calm - N/A   Partly Cloudy
2:48 AM 62.6 °F - 60.8 °F 94% 30.14 in 2.0 mi Calm Calm - N/A   Clear
2:53 AM 62.6 °F - 60.8 °F 94% 30.15 in 2.5 mi Calm Calm - N/A   Clear
3:00 AM 62.6 °F - 60.8 °F 94% 30.14 in 4.0 mi Calm Calm - N/A   Clear
3:34 AM 62.6 °F - 60.8 °F 94% 30.14 in 2.0 mi Calm Calm - N/A   Clear
3:46 AM 62.6 °F - 60.8 °F 94% 30.14 in 3.0 mi Calm Calm - N/A   Clear
3:53 AM 62.1 °F - 60.1 °F 93% 30.13 in 4.0 mi Calm Calm - N/A   Clear
4:19 AM 62.6 °F - 59.0 °F 88% 30.13 in 2.5 mi Calm Calm - N/A   Clear
4:28 AM 60.8 °F - 59.0 °F 94% 30.13 in 3.0 mi ESE 3.5 mph - N/A   Clear
4:30 AM 60.8 °F - 59.0 °F 94% 30.13 in 1.8 mi ESE 4.6 mph - N/A   Clear
4:41 AM 60.8 °F - 59.0 °F 94% 30.14 in 3.0 mi Calm Calm - N/A   Clear
4:53 AM 62.1 °F - 60.1 °F 93% 30.13 in 3.0 mi Calm Calm - N/A   Clear
5:26 AM 60.8 °F - 59.0 °F 94% 30.13 in 1.5 mi Calm Calm - N/A   Clear
5:42 AM 60.8 °F - 59.0 °F 94% 30.13 in 2.0 mi Calm Calm - N/A   Clear
5:50 AM 60.8 °F - 59.0 °F 94% 30.13 in 1.5 mi Calm Calm - N/A   Clear
5:53 AM 61.0 °F - 59.0 °F 93% 30.13 in 1.5 mi Calm Calm - N/A   Clear
6:11 AM 60.8 °F - 59.0 °F 94% 30.14 in 3.0 mi Calm Calm - N/A   Clear
6:27 AM 60.8 °F - 57.2 °F 88% 30.14 in 1.8 mi Calm Calm - N/A   Clear
6:39 AM 60.8 °F - 57.2 °F 88% 30.14 in 3.0 mi Calm Calm - N/A   Clear
6:50 AM 60.8 °F - 57.2 °F 88% 30.14 in 1.8 mi Calm Calm - N/A   Clear
6:53 AM 60.1 °F - 57.9 °F 93% 30.14 in 1.0 mi Calm Calm - N/A   Clear
7:00 AM 60.8 °F - 57.2 °F 88% 30.14 in 0.8 mi Calm Calm - N/A   Clear
7:07 AM 60.8 °F - 57.2 °F 88% 30.14 in 0.5 mi Calm Calm - N/A Fog Fog
7:28 AM 60.8 °F - 57.2 °F 88% 30.14 in 1.2 mi Calm Calm - N/A   Partly Cloudy
7:37 AM 60.8 °F - 59.0 °F 94% 30.14 in 2.5 mi Calm Calm - N/A   Clear
7:48 AM 62.6 °F - 60.8 °F 94% 30.14 in 3.0 mi Calm Calm - N/A   Clear
7:53 AM 62.1 °F - 60.1 °F 93% 30.14 in 3.0 mi Calm Calm - N/A   Clear
8:53 AM 69.1 °F - 64.0 °F 84% 30.15 in 9.0 mi Calm Calm - N/A   Clear
9:53 AM 75.0 °F - 66.9 °F 76% 30.15 in 10.0 mi Calm Calm - N/A   Clear
10:53 AM 81.0 °F 83.3 °F 66.9 °F 62% 30.14 in 10.0 mi SSE 8.1 mph - N/A   Clear
11:53 AM 82.9 °F 84.6 °F 64.9 °F 54% 30.12 in 10.0 mi South 8.1 mph - N/A   Clear
12:53 PM 84.0 °F 85.8 °F 64.9 °F 53% 30.10 in 10.0 mi South 5.8 mph - N/A   Scattered Clouds
1:53 PM 86.0 °F 86.3 °F 62.1 °F 44% 30.07 in 10.0 mi Variable 6.9 mph - N/A   Scattered Clouds
2:53 PM 84.9 °F 85.9 °F 63.0 °F 48% 30.04 in 10.0 mi South 4.6 mph - N/A   Scattered Clouds
3:53 PM 86.0 °F 86.8 °F 63.0 °F 46% 30.02 in 10.0 mi SW 5.8 mph - N/A   Clear
4:53 PM 86.0 °F 86.8 °F 63.0 °F 46% 30.00 in 10.0 mi Variable 3.5 mph - N/A   Clear
5:53 PM 84.0 °F 85.8 °F 64.9 °F 53% 29.99 in 10.0 mi Calm Calm - N/A   Clear
6:53 PM 75.0 °F - 69.1 °F 82% 29.99 in 10.0 mi Calm Calm - N/A   Clear
7:53 PM 71.1 °F - 68.0 °F 90% 30.01 in 8.0 mi Calm Calm - N/A   Clear
8:53 PM 70.0 °F - 66.9 °F 90% 30.01 in 6.0 mi Calm Calm - N/A   Clear
9:19 PM 69.8 °F - 66.2 °F 88% 30.02 in 1.8 mi Calm Calm - N/A   Clear
9:29 PM 68.0 °F - 66.2 °F 94% 30.02 in 0.5 mi Calm Calm - N/A Fog Fog
9:41 PM 69.8 °F - 66.2 °F 88% 30.02 in 2.5 mi Calm Calm - N/A   Clear
9:48 PM 69.8 °F - 66.2 °F 88% 30.02 in 4.0 mi Calm Calm - N/A   Clear
9:53 PM 68.0 °F - 66.0 °F 93% 30.01 in 5.0 mi Calm Calm - N/A   Clear
10:22 PM 68.0 °F - 66.2 °F 94% 30.03 in 2.5 mi Calm Calm - N/A   Clear
10:30 PM 68.0 °F - 64.4 °F 88% 30.03 in 3.0 mi Calm Calm - N/A   Clear
10:34 PM 66.2 °F - 64.4 °F 94% 30.03 in 1.8 mi Calm Calm - N/A   Clear
10:53 PM 66.9 °F - 64.9 °F 93% 30.02 in 1.0 mi Calm Calm - N/A   Clear
11:11 PM 66.2 °F - 64.4 °F 94% 30.02 in 2.5 mi Calm Calm - N/A   Clear
11:36 PM 66.2 °F - 64.4 °F 94% 30.02 in 1.0 mi Calm Calm - N/A   Clear
11:51 PM 66.2 °F - 64.4 °F 94% 30.02 in 3.0 mi Calm Calm - N/A   Clear
11:53 PM 66.0 °F - 64.0 °F 93% 30.01 in 3.0 mi Calm Calm - N/A   Clear